Regional Weather Roundup
Issued by NWS Newport/Morehead, NC

Current Version | Previous Version | Graphics & Text | Print | Product List | Glossary Off
Versions: 1 2 3 4 5 6 7 8 9 10 11 12 13 14 15 16 17 18 19 20 21 22 23 24 25 26 27 28 29 30 31 32 33 34 35 36 37 38 39 40 41 42 43 44 45 46 47 48 49 50

000
ASUS42 KMHX 232112
RWRMHX
WEATHER ROUNDUP FOR EASTERN NORTH CAROLINA
NATIONAL WEATHER SERVICE NEWPORT/MOREHEAD CITY NC
500 PM EDT SAT MAY 23 2015

NOTE: "FAIR" INDICATES FEW OR NO CLOUDS BELOW 12,000 FEET
WITH NO SIGNIFICANT WEATHER AND/OR OBSTRUCTIONS TO VISIBILITY

NCZ015>017-031-032-045>047-102-103-232200-
NORTH COAST

CITY           SKY/WX    TMP DP  RH WIND       PRES   REMARKS
EDENTON        SUNNY     71  52  50 SE9       30.41S
ELIZABETH CITY SUNNY     70  49  47 NE9       30.41F
KITTY HAWK     CLEAR     64  51  62 E7        30.41F
MANTEO         SUNNY     65  51  61 NE9       30.42F

$$

NCZ045>047-081-094-103-104-232200-
CENTRAL COAST

CITY           SKY/WX    TMP DP  RH WIND       PRES   REMARKS
FRISCO         SUNNY     70  44  39 NE12      30.41F
SWANQUARTER      N/A     75 N/A N/A NE7       30.36S

$$

NCZ095-097-098-100-101-232200-
SOUTHERN COAST

CITY           SKY/WX    TMP DP  RH WIND       PRES   REMARKS
BEAUFORT       SUNNY     74  57  55 E12       30.38F
CEDAR ISLAND     N/A     72 N/A N/A E8G18     30.44S
JACKSONVILLE   SUNNY     78  49  35 SE13      30.37S
PINEY ISLAND   CLEAR    N/A N/A N/A E14       30.39F
WILMINGTON     SUNNY     77  48  35 SE12      30.38S


$$

NCZ011>013-027>030-043-044-078>080-089-090>093-098-232200-
COASTAL PLAIN

CITY           SKY/WX    TMP DP  RH WIND       PRES   REMARKS
AHOSKIE        SUNNY     75  48  38 N6        30.39S
CLINTON        SUNNY     80  50  34 E6        30.37F
ELIZABETHTOWN  SUNNY     80  48  32 CALM      30.36S
GOLDSBORO      SUNNY     80  48  32 VRB1      30.34F
GREENVILLE     MOSUNNY   77  52  41 E8        30.39R
HAVELOCK       SUNNY     76  57  51 NE12G21   30.39S
KENANSVILLE    MOSUNNY   76  48  36 CALM      30.38S
KINSTON        MOSUNNY   81  48  32 NE7       30.38F
NEW BERN       SUNNY     78  55  44 E8        30.39F
RICHLANDS      MOSUNNY   81  46  30 SE5       30.37S
ROCKY MOUNT    SUNNY     79  47  32 NE3       30.38F
WASHINGTON     SUNNY     75  48  37 E5        30.39S
WHITEVILLE     SUNNY     81  40  23 SE7       30.35F

$$

AMZ130-135-150-152-154-156-158-170-250-252-270-ANZ085-086-088-633-658-670-232200-
MARINE OBSERVATIONS

STATION/POSITION TIME  TEMP    WIND        PRES    WAVE   SWELL
                       AIR SEA DIR/SP/G            HT/PER HT/PER
                 (UTC) (F)     (DEG/KT/KT) (MB)    (FT/S) (FT/S)
CHESAPEAKE LIGHT 2100   59     110/  8/  9 1030.9
64 E VA BEACH    2050   61 61   20/ 10/ 14 1029.6    3/ 4   2/ 8
DUCK             2000   61 65   40/ 10/ 12 1029.6
2 E DUCK         2011      63                N/A     2/ 4
OREGON INLET     2000   63 71   10/ 11/ 15 1030.4
13E OREGON INLT  2100      62                N/A     3/ 4
HATTERAS CG      2000   69 73   50/ 10/ 16 1029.3
DIAMOND BUOY     2050   69 77   30/ 16/ 17 1029.2    3/ 9   2/ 9
CAPE LOOKOUT     2100   70      70/ 15/ 16 1028.8
BEAUFORT LAB     2000   73 74  100/  9/ 13 1028.2
27 SE WRIGHTSVLE 2000   70 77   90/ 12/ 14   N/A
5 SE WRIGHTSVLE  2008   74 76  100/ 12/ 16 1028.9
225 S CAPE HAT   2050   72 75   60/ 19/ 23 1026.7    6/ 5   2/10
41 SE CHARLESTON 2050   75 76   80/ 16/ 19 1026.9    4/ 5   2/ 9

$$


USA.gov is the U.S. government's official web portal to all federal, state and local government web resources and services.